YACHTS Weather Reports


time (UTC)temp
C
wind
direction
speed
KPH
gust
KPH
rain 1hr
cm
rain 24hr
cm
rain mn
cm
humidity
%
barometer
mb
20260902131126 15 268 1.6 22.5 0.00 0.03 0.00 84 1006.6
20260902130611 14 170 4.8 22.5 0.00 0.03 0.00 85 1006.7
20260902130059 14 147 6.4 20.9 0.00 0.03 0.00 85 1006.8
20260902125546 14 149 3.2 20.9 0.00 0.03 0.00 85 1006.7
20260902124519 14 0 0.0 0.0 0.00 0.03 0.00 85 1007.1
20260902123453 13 187 1.6 19.3 0.00 0.03 0.00 85 1007.3
20260902122940 14 319 0.0 19.3 0.00 0.03 0.00 85 1007.3
20260902122427 13 72 0.0 16.1 0.00 0.03 0.00 85 1007.4
20260902121914 14 141 0.0 16.1 0.00 0.03 0.00 84 1007.6
20260902121402 14 154 0.0 12.9 0.00 0.03 0.00 84 1007.7
20260902120848 14 158 0.0 22.5 0.00 0.03 0.00 83 1007.8
20260902120335 14 274 1.6 22.5 0.00 0.03 0.00 82 1007.9
20260902115822 15 187 6.4 22.5 0.00 0.05 0.00 81 1007.8
20260902115310 15 177 1.6 14.5 0.00 0.05 0.00 81 1007.9
20260902114756 15 249 0.0 32.2 0.00 0.05 0.00 80 1007.8
20260902114243 16 183 11.3 32.2 0.00 0.05 0.00 78 1008.0
20260902113217 16 172 8.0 29.0 0.00 0.05 0.00 78 1007.9
20260902112704 16 226 8.0 29.0 0.00 0.05 0.00 79 1008.0
20260902111638 16 261 1.6 22.5 0.00 0.05 0.00 79 1008.0
20260902111125 16 187 4.8 22.5 0.00 0.05 0.00 79 1008.1
20260902110612 16 184 4.8 12.9 0.00 0.05 0.00 79 1008.0
20260902110149 16 187 3.2 22.5 0.00 0.05 0.00 79 1008.2
20260902110059 16 187 3.2 22.5 0.00 0.05 0.00 79 1008.2
20260902105546 16 249 0.0 22.5 0.00 0.05 0.00 79 1008.2
20260902105033 16 250 3.2 22.5 0.00 0.05 0.00 79 1008.3
20260902104520 16 112 1.6 16.1 0.00 0.05 0.00 79 1008.3
20260902104007 16 284 6.4 27.4 0.00 0.05 0.00 80 1008.5
20260902103454 16 274 6.4 27.4 0.00 0.05 0.00 80 1008.6
20260902102941 16 268 6.4 27.4 0.00 0.05 0.00 80 1008.7
20260902102430 16 175 8.0 20.9 0.00 0.05 0.00 81 1008.6
20260902101402 16 281 0.0 25.7 0.00 0.05 0.00 82 1008.9
20260902100849 16 72 12.9 25.7 0.00 0.05 0.00 82 1008.9
20260902100336 16 236 6.4 25.7 0.00 0.05 0.00 83 1008.9
20260902095823 15 207 9.7 17.7 0.00 0.05 0.00 84 1008.9
20260902095310 15 235 1.6 22.5 0.00 0.05 0.00 84 1009.0
20260902094757 15 170 4.8 22.5 0.00 0.05 0.00 85 1009.1
20260902094244 15 180 0.0 22.5 0.00 0.05 0.00 86 1009.1
20260902093731 15 173 1.6 14.5 0.00 0.05 0.00 86 1009.2
20260902093218 14 179 3.2 14.5 0.00 0.05 0.00 87 1009.3
20260902092705 14 217 1.6 20.9 0.00 0.05 0.00 87 1009.4
20260902091639 14 246 3.2 20.9 0.00 0.05 0.00 87 1009.6
20260902091126 14 277 1.6 17.7 0.00 0.05 0.00 87 1009.7
20260902090613 14 0 0.0 16.1 0.00 0.05 0.00 88 1009.8
20260902085547 14 326 3.2 14.5 0.00 0.05 0.00 88 1009.9
20260902085034 14 151 1.6 25.7 0.00 0.05 0.00 88 1010.0
20260902084521 14 221 1.6 25.7 0.00 0.05 0.00 88 1010.1
20260902084008 14 142 8.0 25.7 0.00 0.05 0.00 88 1010.3
20260902083455 14 240 6.4 24.1 0.00 0.05 0.00 88 1010.2
20260902082429 14 266 3.2 24.1 0.00 0.05 0.00 88 1010.4
20260902081403 14 161 3.2 25.7 0.00 0.05 0.00 88 1010.5
20260902080850 14 291 0.0 25.7 0.00 0.05 0.00 87 1010.5
20260902080337 14 203 8.0 25.7 0.00 0.05 0.00 87 1010.7
20260902075311 14 282 8.0 24.1 0.00 0.05 0.05 87 1010.5
20260902074758 14 282 3.2 17.7 0.00 0.05 0.05 87 1010.6
20260902074245 14 210 4.8 32.2 0.00 0.05 0.05 87 1010.6
20260902073732 15 196 8.0 32.2 0.00 0.05 0.05 86 1010.7
20260902073219 14 135 12.9 32.2 0.00 0.05 0.05 86 1010.7
20260902072706 15 245 8.0 19.3 0.00 0.05 0.05 86 1010.7
20260902072153 15 232 0.0 19.3 0.00 0.05 0.05 86 1010.7
20260902071640 15 135 4.8 12.9 0.00 0.05 0.05 86 1010.7
20260902071127 15 219 1.6 29.0 0.00 0.05 0.05 86 1010.7
20260902070614 14 158 3.2 29.0 0.00 0.05 0.05 86 1010.6
20260902070101 15 187 4.8 29.0 0.00 0.05 0.05 86 1010.7
20260902064522 15 257 8.0 17.7 0.00 0.05 0.05 87 1010.8
20260902064009 15 271 4.8 17.7 0.00 0.05 0.05 87 1010.8
20260902063456 15 222 0.0 12.9 0.00 0.05 0.05 87 1010.8
20260902062430 15 259 0.0 25.7 0.00 0.05 0.05 86 1010.9
20260902061917 15 219 8.0 25.7 0.00 0.05 0.05 86 1011.0
20260902061404 15 259 6.4 16.1 0.00 0.05 0.05 86 1011.1
20260902060851 15 305 6.4 16.1 0.00 0.05 0.05 85 1011.1
20260902060338 15 152 3.2 25.7 0.00 0.05 0.05 85 1011.1
20260902055825 15 264 11.3 25.7 0.00 0.05 0.05 86 1011.2
20260902055312 15 280 0.0 25.7 0.00 0.05 0.05 86 1011.2
20260902054759 15 151 4.8 16.1 0.00 0.05 0.05 86 1011.2
20260902054246 15 225 4.8 14.5 0.00 0.05 0.05 86 1011.2
20260902053733 15 138 1.6 19.3 0.00 0.05 0.05 86 1011.3
20260902053220 15 205 0.0 19.3 0.00 0.05 0.05 86 1011.4
20260902052707 15 280 6.4 19.3 0.00 0.05 0.05 86 1011.4
20260902052154 15 182 9.7 19.3 0.00 0.05 0.05 86 1011.5
20260902051641 15 224 0.0 19.3 0.00 0.05 0.05 86 1011.5
20260902051128 15 210 0.0 16.1 0.00 0.05 0.05 87 1011.5
20260902050615 15 193 4.8 11.3 0.00 0.05 0.05 87 1011.4
20260902045549 15 0 0.0 22.5 0.00 0.05 0.05 87 1011.5
20260902045036 15 238 6.4 22.5 0.00 0.05 0.05 87 1011.6
20260902044523 15 0 0.0 16.1 0.00 0.05 0.05 87 1011.7
20260902044010 15 205 11.3 20.9 0.00 0.05 0.05 87 1011.7
20260902043456 15 235 1.6 20.9 0.00 0.05 0.05 87 1011.8
20260902042943 15 239 3.2 20.9 0.00 0.05 0.05 87 1011.7
20260902042430 15 169 1.6 17.7 0.00 0.05 0.05 87 1011.7
20260902041917 15 179 3.2 17.7 0.00 0.05 0.05 88 1011.7
20260902041404 15 232 4.8 14.5 0.00 0.05 0.05 88 1011.7
20260902040851 15 149 1.6 14.5 0.00 0.05 0.05 88 1011.6
20260902035312 15 198 4.8 24.1 0.00 0.05 0.05 89 1011.6
20260902034759 14 163 4.8 17.7 0.00 0.05 0.05 89 1011.7
20260902034246 15 112 4.8 17.7 0.00 0.05 0.05 89 1011.6
20260902033733 15 159 1.6 24.1 0.00 0.05 0.05 89 1011.7
20260902033221 15 263 4.8 24.1 0.00 0.05 0.05 89 1011.6
20260902032707 15 221 9.7 24.1 0.00 0.05 0.05 89 1011.7
20260902032154 15 239 0.0 22.5 0.00 0.05 0.05 89 1011.6
20260902031641 15 239 1.6 29.0 0.00 0.05 0.05 89 1011.6
20260902031128 15 296 12.9 29.0 0.00 0.05 0.05 89 1011.6
20260902030615 14 273 0.0 29.0 0.00 0.05 0.05 89 1011.6
20260902025549 15 221 11.3 25.7 0.00 0.05 0.05 89 1011.6
20260902024524 15 317 8.0 25.7 0.00 0.05 0.05 89 1011.7
20260902024010 15 134 11.3 25.7 0.00 0.05 0.05 89 1011.7
20260902023457 15 183 4.8 22.5 0.00 0.05 0.05 89 1011.7
20260902022945 15 282 0.0 22.5 0.00 0.05 0.05 89 1011.7
20260902022432 15 173 6.4 22.5 0.00 0.05 0.05 89 1011.7
20260902021919 15 253 4.8 19.3 0.00 0.05 0.05 88 1011.6
20260902021406 15 107 0.0 19.3 0.00 0.05 0.05 88 1011.6
20260902020853 15 267 8.0 19.3 0.00 0.05 0.05 88 1011.7
20260902020340 16 180 3.2 17.7 0.00 0.05 0.05 88 1011.6
20260902015314 16 274 0.0 8.0 0.00 0.05 0.05 88 1011.4
20260902014801 16 170 0.0 24.1 0.00 0.05 0.05 88 1011.3
20260902014248 16 280 0.0 24.1 0.00 0.05 0.05 88 1011.3
20260902013737 16 273 4.8 24.1 0.00 0.05 0.05 88 1011.2
20260902013222 16 190 3.2 14.5 0.00 0.05 0.05 88 1011.3
20260902012709 16 190 0.0 20.9 0.00 0.05 0.05 89 1011.2
20260902011643 16 225 8.0 20.9 0.00 0.05 0.05 89 1011.3
20260902011130 16 274 8.0 12.9 0.00 0.05 0.05 89 1011.4
20260902010617 16 298 8.0 19.3 0.00 0.05 0.05 89 1011.4
20260902005551 15 348 1.6 19.3 0.00 0.05 0.05 89 1011.4
20260902005038 16 0 0.0 24.1 0.00 0.05 0.05 89 1011.4
20260902004525 15 296 3.2 24.1 0.00 0.05 0.05 89 1011.4
20260902004012 16 259 8.0 24.1 0.00 0.05 0.05 89 1011.4
20260902003459 16 0 4.8 19.3 0.00 0.05 0.05 89 1011.4
20260902002946 16 252 4.8 17.7 0.00 0.05 0.05 89 1011.5
20260902001920 15 285 0.0 17.7 0.00 0.05 0.05 89 1011.5
20260902001407 16 256 9.7 17.7 0.00 0.05 0.05 89 1011.6
20260902000854 16 233 0.0 17.7 0.00 0.05 0.05 89 1011.5
20260902000341 16 260 1.6 17.7 0.00 0.05 0.05 89 1011.6
20260901235315 15 306 4.8 12.9 0.00 0.05 0.05 89 1011.8
20260901234802 15 267 1.6 9.7 0.00 0.05 0.05 89 1011.8
20260901234249 15 280 6.4 17.7 0.00 0.05 0.05 88 1011.8
20260901233223 16 253 3.2 17.7 0.00 0.05 0.05 89 1011.9
20260901232710 16 271 0.0 16.1 0.00 0.05 0.05 89 1012.0
20260901232157 15 261 0.0 16.1 0.00 0.05 0.05 89 1011.9
20260901231644 15 250 4.8 14.5 0.00 0.05 0.05 88 1012.0
20260901231130 15 0 0.0 20.9 0.00 0.05 0.05 89 1012.0
20260901230618 15 134 3.2 20.9 0.00 0.05 0.05 88 1012.1
20260901230106 16 232 3.2 20.9 0.00 0.05 0.05 88 1012.1
20260901225552 15 196 0.0 16.1 0.00 0.05 0.05 88 1012.1
20260901225038 16 0 0.0 16.1 0.00 0.05 0.05 89 1012.2
20260901224525 16 0 4.8 19.3 0.00 0.05 0.05 88 1012.2
20260901224012 16 301 0.0 19.3 0.00 0.05 0.05 88 1012.2
20260901223459 16 0 1.6 19.3 0.00 0.05 0.05 88 1012.1
20260901222947 16 222 4.8 17.7 0.00 0.05 0.05 88 1012.1
20260901222433 16 273 3.2 17.7 0.00 0.05 0.05 87 1012.1
20260901221920 16 250 4.8 12.9 0.00 0.05 0.05 87 1012.2
20260901221408 16 294 8.0 19.3 0.00 0.05 0.05 87 1012.1
20260901220854 16 249 6.4 19.3 0.00 0.05 0.05 87 1012.1
20260901215828 16 177 6.4 17.7 0.00 0.05 0.05 87 1012.1
20260901214802 16 322 0.0 17.7 0.00 0.05 0.05 88 1012.0
20260901214249 16 217 9.7 17.7 0.00 0.05 0.05 87 1012.0
20260901213736 16 260 3.2 17.7 0.00 0.05 0.05 88 1012.0
20260901213223 16 242 0.0 20.9 0.00 0.05 0.05 88 1011.9
20260901212710 16 263 8.0 20.9 0.00 0.05 0.05 88 1011.9
20260901212157 16 250 9.7 20.9 0.00 0.05 0.05 88 1011.9
20260901211644 16 309 6.4 19.3 0.00 0.05 0.05 88 1011.8
20260901211131 17 190 4.8 19.3 0.00 0.05 0.05 88 1011.9
20260901210618 16 266 1.6 17.7 0.00 0.05 0.05 88 1011.9
20260901210105 16 257 6.4 17.7 0.00 0.05 0.05 88 1011.9
20260901205039 16 256 6.4 11.3 0.00 0.05 0.05 88 1011.8
20260901204526 16 0 0.0 11.3 0.00 0.05 0.05 89 1011.8
20260901204013 16 266 9.7 17.7 0.00 0.05 0.05 88 1011.9
20260901203500 16 253 1.6 17.7 0.00 0.05 0.05 89 1012.0
20260901202947 16 208 3.2 17.7 0.00 0.05 0.05 89 1012.0
20260901202434 16 270 0.0 16.1 0.00 0.05 0.05 89 1012.0
20260901201921 15 271 6.4 17.7 0.00 0.05 0.05 89 1012.0
20260901201408 16 263 9.7 17.7 0.00 0.05 0.05 89 1012.0
20260901200855 16 268 1.6 17.7 0.00 0.05 0.05 89 1011.9
20260901200342 16 254 4.8 17.7 0.00 0.05 0.05 90 1012.0
20260901195830 16 282 8.0 17.7 0.00 0.05 0.05 90 1011.9
20260901195316 15 268 6.4 17.7 0.00 0.05 0.05 91 1011.9
20260901194804 15 159 3.2 17.7 0.03 0.05 0.05 91 1012.0
20260901194250 15 190 1.6 17.7 0.03 0.05 0.05 91 1012.0
20260901193737 15 246 0.0 17.7 0.03 0.05 0.05 91 1012.1
20260901192711 15 247 1.6 12.9 0.03 0.05 0.05 91 1012.1
20260901192158 15 246 4.8 8.0 0.03 0.05 0.05 91 1012.2
20260901191645 15 0 0.0 16.1 0.03 0.05 0.05 91 1012.2
20260901190619 15 281 6.4 12.9 0.03 0.05 0.05 92 1012.2
20260901190106 15 285 3.2 9.7 0.03 0.05 0.05 91 1012.2
20260901185040 15 246 11.3 17.7 0.03 0.05 0.05 92 1012.3
20260901184527 15 273 8.0 17.7 0.00 0.05 0.05 92 1012.2
20260901184014 14 0 4.8 14.5 0.00 0.03 0.03 92 1012.3
20260901183501 14 0 1.6 14.5 0.00 0.03 0.03 92 1012.3
20260901182949 14 249 3.2 14.5 0.00 0.03 0.03 92 1012.3
20260901182435 15 250 1.6 14.5 0.00 0.03 0.03 92 1012.3
20260901181922 15 229 6.4 11.3 0.00 0.03 0.03 92 1012.3
20260901181409 15 275 6.4 12.9 0.00 0.03 0.03 92 1012.2
20260901180856 15 259 0.0 12.9 0.00 0.03 0.03 92 1012.2
20260901180343 15 299 8.0 12.9 0.00 0.03 0.03 92 1012.2
20260901175830 15 284 6.4 12.9 0.00 0.03 0.03 92 1012.1
20260901175317 15 291 4.8 12.9 0.00 0.03 0.03 92 1012.1
20260901174804 15 291 6.4 12.9 0.00 0.03 0.03 92 1012.1
20260901174251 15 240 0.0 12.9 0.00 0.03 0.03 93 1012.2
20260901173738 15 263 1.6 11.3 0.00 0.03 0.03 93 1012.2
20260901173225 15 263 0.0 8.0 0.00 0.03 0.03 93 1012.2
20260901172712 15 317 1.6 8.0 0.00 0.03 0.03 93 1012.3
20260901172159 15 257 1.6 8.0 0.00 0.03 0.03 93 1012.2
20260901171646 15 0 0.0 4.8 0.00 0.03 0.03 93 1012.2
20260901171133 15 0 0.0 0.0 0.00 0.03 0.03 93 1012.2
20260901170620 14 0 0.0 0.0 0.00 0.03 0.03 93 1012.2
20260901170107 14 0 0.0 0.0 0.00 0.03 0.03 94 1012.3
20260901165555 13 0 0.0 0.0 0.00 0.03 0.03 94 1012.2
20260901165041 13 0 0.0 0.0 0.00 0.03 0.03 94 1012.2
20260901164528 13 0 0.0 0.0 0.00 0.03 0.03 94 1012.2
20260901164015 13 0 0.0 0.0 0.00 0.03 0.03 94 1012.2
20260901163502 13 0 0.0 6.4 0.00 0.03 0.03 94 1012.3
20260901162949 13 0 0.0 6.4 0.00 0.03 0.03 94 1012.3
20260901162436 13 231 0.0 6.4 0.00 0.03 0.03 94 1012.3
20260901161923 13 0 0.0 0.0 0.00 0.03 0.03 94 1012.3
20260901161410 13 0 0.0 0.0 0.00 0.03 0.03 94 1012.3
20260901160857 13 0 0.0 0.0 0.00 0.03 0.03 94 1012.4
20260901160344 13 0 0.0 0.0 0.00 0.03 0.03 94 1012.3
20260901155831 13 0 0.0 0.0 0.00 0.03 0.03 94 1012.3
20260901155317 13 0 0.0 6.4 0.00 0.03 0.03 94 1012.3
20260901154805 13 0 0.0 6.4 0.00 0.03 0.03 94 1012.4
20260901154252 13 254 0.0 6.4 0.00 0.03 0.03 94 1012.4
20260901153225 13 189 0.0 4.8 0.00 0.03 0.03 94 1012.3
20260901152712 13 0 0.0 0.0 0.00 0.03 0.03 94 1012.3
20260901151646 13 0 0.0 0.0 0.00 0.03 0.03 94 1012.4
20260901151133 13 0 0.0 0.0 0.00 0.03 0.03 94 1012.3
20260901150620 12 0 0.0 0.0 0.00 0.03 0.03 94 1012.3
20260901150107 13 0 0.0 0.0 0.00 0.03 0.03 94 1012.3
20260901145554 13 0 0.0 0.0 0.00 0.03 0.03 94 1012.3
20260901145041 13 0 0.0 0.0 0.00 0.03 0.03 94 1012.3
20260901144015 13 0 0.0 0.0 0.00 0.03 0.03 94 1012.2
20260901143502 13 0 0.0 0.0 0.00 0.03 0.03 94 1012.1
20260901142950 13 0 0.0 0.0 0.00 0.03 0.03 94 1012.1
20260901142436 13 0 0.0 0.0 0.00 0.03 0.03 94 1012.1
20260901141923 13 0 0.0 0.0 0.00 0.03 0.03 94 1012.0
20260901141410 12 0 0.0 0.0 0.00 0.03 0.03 94 1012.0
20260901140857 12 0 0.0 0.0 0.00 0.03 0.03 94 1012.0
20260901140344 13 0 0.0 0.0 0.00 0.03 0.03 94 1012.0
20260901135318 13 0 0.0 0.0 0.00 0.03 0.03 94 1011.9
20260901134805 12 0 0.0 0.0 0.00 0.03 0.03 94 1011.8
20260901134252 12 0 0.0 0.0 0.00 0.03 0.03 94 1011.7
20260901133739 13 0 0.0 0.0 0.00 0.03 0.03 94 1011.7
20260901132713 12 0 0.0 0.0 0.00 0.03 0.03 94 1011.6
20260901132200 12 0 0.0 0.0 0.00 0.03 0.03 94 1011.6
20260901131647 13 189 0.0 8.0 0.00 0.03 0.03 94 1011.6